User: anonymous   Login
Location: Oshawa
(43.9000°N, 78.8670°W)
Time: 09:11:59
(UTC-04:00)
Language:

IDEFIX/ARIANE 42P - Orbit

View from above orbital plane
View from above orbital plane
View from above satellite
View from above satellite

Ground track
Ground track

The orbit data is extracted from the following two-line orbital elements,

1 27422U 02021B   15107.50921695  .00000271  00000-0  12274-3 0  9992
2 27422 098.2627 139.9158 0013531 066.4635 293.7968 14.29164376673599
Epoch (UTC): 17 April 2015 12:13:16
Eccentricity: 0.0013531
inclination: 98.2627°
perigee height: 785 km
apogee height: 804 km
right ascension of ascending node: 139.9158°
argument of perigee: 66.4635°
revolutions per day: 14.29164376
mean anomaly at epoch: 293.7968°
orbit number at epoch: 67359

The dashed part of the orbit path shows where the satellite is in the earth's shadow,  

DLR